Powrót do katalogu

LUOJIA-1 01

AktywnyNaukaSSO
NORAD 43485·PAYLOAD·🇨🇳 China

Wystrzelony Jun 2, 2018 z Jiuquan Satellite Launch Center

Loading…

Następne Przeloty (najbliższe 24 godziny)

TLE

ŚwieżeSource: Space-Track

Epoka: Sep 14, 2026, 15:29 UTC

1 43485U 18048B   26257.64539536  .00001786  00000-0  20267-3 0  9990
2 43485  97.8048 334.3838 0008782 177.8138 182.3119 14.87551348447516

Śledź LUOJIA-1 01 w czasie rzeczywistym z AllMySat

Download on the App Store